Content
SEND FEEDBACK

Daily
Averages
Monthly
Summary
Mexico

PUEBLA - JARDINES DE SAN MANUEL, PUEBLA


Home > North America > Mexico > Puebla
Elevation: 6962 feet     Latitude: 19 00N     Longitude: 098 11W

WEATHER
 
SELECT A DAY
Number of Records: 123,312;   Date Range: 1/1/95 - 9/30/14
 
SHARE

PRINT THIS DATA

[ ← Previous Day ]
WEATHER ALMANAC - FEBRUARY 18, 2013
[ Next Day → ]
[ °C ]   °F
Weather ElementAverageHighLow
Temperature64.2 °F80.6 °F (2:47 pm)39.2 °F (6:01 am)
Dewpoint34.5 °F40 °F (8:50 am)21.2 °F (3:41 pm)
Humidity36.7 %81 % (6:01 am)11 % (2:55 pm)
Barometer30.16 in30.36 in (8:43 am)29.65 in (8:55 pm)
Wind Speed6.8 mph20.7 mph (4:41 pm)
Weather ElementAverage
Visibility6.9 mi
Wind DirectionSSW (195.9 °)

Weather ElementTotal
Precipitation---
Heating Degree Days5.1 (Base 65)
Growing Degree Days9.9 (Base 50)
Averaged from 24 records on February 18, 2013
WEATHER CONDITIONS BREAKOUT
WIND DIRECTION BREAKOUT
WEATHER BY HOUR - FEBRUARY 18, 2013
[ °C ]   °F
Local TimeTemperatureDewpointHumidityBarometerVisibilityWind DirectionWind SpeedGust SpeedPrecipitationEventsConditions
5:50 AM46.0 °F38.0 °F67 %29.96 in3.0 miCalm
6:01 AM39.2 °F33.8 °F81 %30.32 in10.0 miNW (320°)6.9 mphClear
6:45 AM41.0 °F35.6 °F81 %30.33 in8.0 miNW (320°)8.1 mphClear
7:42 AM44.6 °F35.6 °F71 %30.34 in8.0 miNNW (330°)5.8 mphClear
8:43 AM51.8 °F37.4 °F58 %30.36 in8.0 miNorth (360°)3.5 mphClear
8:50 AM56.0 °F40.0 °F45 %30.04 in3.0 miCalmHaze
9:45 AM62.6 °F39.2 °F42 %30.36 in8.0 miNorth (360°)4.6 mphClear
10:42 AM68.0 °F37.4 °F33 %30.36 in8.0 miNE (40°)6.9 mphClear
11:41 AM71.6 °F35.6 °F27 %30.32 in8.0 miNE (50°)4.6 mphClear
11:50 AM73.0 °F38.0 °F18 %29.97 in3.0 miSSW (210°)4.5 mphHaze
12:41 PM78.8 °F23.0 °F13 %30.29 in10.0 miNorth (360°)12.7 mphClear
1:40 PM78.8 °F23.0 °F13 %30.26 in8.0 miNNE (30°)10.4 mphClear
2:47 PM80.6 °F23.0 °F12 %30.22 in8.0 miNorth (350°)12.7 mphClear
2:55 PM80.0 °F34.0 °F11 %29.75 in6.0 miWSW (240°)8.9 mphHaze
3:41 PM80.6 °F21.2 °F11 %30.20 in8.0 miNE (50°)6.9 mphClear
4:41 PM75.2 °F39.2 °F27 %30.20 in8.0 miSSE (160°)20.7 mphPartly Cloudy
5:40 PM71.6 °F39.2 °F31 %30.22 in8.0 miSSW (200°)13.8 mphPartly Cloudy
5:50 PM74.0 °F39.0 °F18 %29.66 in6.0 miSSE (160°)4.5 mphHaze
6:45 PM66.2 °F39.2 °F37 %30.24 in6.0 miSSW (200°)9.2 mphPartly Cloudy
7:41 PM60.8 °F39.2 °F45 %30.28 in6.0 miENE (60°)4.6 mphClear
8:40 PM60.8 °F39.2 °F45 %30.32 in8.0 miEast (80°)3.5 mphClear
8:55 PM68.0 °F35.0 °F19 %29.65 in3.0 miENE (60°)2.2 mphPartly Cloudy
11:03 PM51.8 °F37.4 °F58 %30.34 in10.0 miNW (310°)6.9 mphClear
11:59 PM59.0 °F26.0 °F17 %29.76 in3.0 miENE (60°)2.2 mph
Hourly data recorded from MMPB, located miles away from Puebla - Jardines de San Manuel, Puebla







STORIES FROM OUR PARTNERS